[[{"header":{"parameterUnit":"m.s-1","parameterCategory":1,"la1":30.2991,"la2":30.254,"lo1":-89.0895,"lo2":-89.0444,"dy":0.0017,"dx":0.0017,"nx":28,"ny":28,"refTime":"2023-08-16T09:00:00:Z","depth":0,"parameterNumber":2,"parameterNumberName":"U-component_of_WINDS"},"data":[0,0,0,0,0,0,0,0,0,0,0,0,0,0,0,0,0,0,0,0,0,0,0,0,0,0,0,0,0,0,0,0,0,0,0,0,0,0,0,0,0,0,0,0,0,0,0,0,0,0,0,0,0,0,0,0,0,0,1.4941,1.4941,0,1.4993,1.4994,1.4994,1.5005,1.5005,1.5004,1.5004,1.5054,1.5056,1.5057,0,0,0,0,0,0,0,0,0,0,0,0,0,1.4845,1.4847,1.4941,1.4941,1.4942,1.4993,1.4994,1.4994,1.5005,1.5005,1.5004,1.5004,1.5053,1.5055,1.5057,0,0,0,0,0,0,0,0,0,0,0,0,0,1.4891,1.4848,1.4941,1.4954,1.4955,1.4993,1.4994,1.4995,1.5005,1.5005,1.5004,1.5004,1.5053,1.5055,1.5058,1.5085,0,0,1.5065,1.5066,0,0,0,0,0,0,0,0,1.4888,1.4894,1.4951,1.4953,1.4955,1.4992,1.4978,1.5025,1.5006,1.4986,1.5004,1.5003,1.5034,1.5038,1.5049,1.5087,1.5089,1.5066,1.5067,1.5068,1.5069,0,0,0,0,0,0,0,1.4885,1.4892,1.4961,1.4952,1.4954,1.4955,1.4961,1.4987,1.5012,1.4988,1.4989,1.4995,1.5034,1.5046,1.505,1.509,1.5065,1.5068,1.5069,1.507,1.5151,1.5152,0,0,0,0,0,0,1.488,1.489,1.496,1.4963,1.492,1.4958,1.4964,1.4981,1.5012,1.5016,1.4996,1.4995,1.5042,1.5047,1.5052,1.5084,1.5068,1.5071,1.5072,1.515,1.5151,1.5152,0,0,0,0,0,0,1.4878,1.4887,1.4958,1.4927,1.4936,1.496,1.4978,1.4982,1.4994,1.5018,1.5022,1.5003,1.5042,1.5048,1.5076,1.5086,1.5072,1.5074,1.515,1.5151,1.5152,1.515,0,0,0,0,0,0,1.4876,1.4886,1.4897,1.4927,1.4937,1.4983,1.4979,1.4983,1.4999,1.4999,1.5026,1.503,1.5042,1.5072,1.5079,1.5089,1.5076,1.5149,1.515,1.5151,1.5149,1.5151,1.5152,0,0,0,0,0,1.4872,1.4894,1.4898,1.4906,1.4953,1.4983,1.4989,1.5003,1.4999,1.501,1.5026,1.5029,1.5084,1.5075,1.5082,1.5094,1.5148,1.515,1.5151,1.5149,1.515,1.5152,0,0,0,0,0,0,1.4864,1.4899,1.4903,1.4936,1.4957,1.4985,1.5,1.5005,1.5027,1.5026,1.5041,1.5047,1.5074,1.5087,1.5076,1.5121,1.5116,1.5119,1.5111,1.5113,1.5115,1.5111,1.5078,0,0,0,0,0,1.4867,1.489,1.4918,1.4944,1.4955,1.4975,1.4989,1.4998,1.502,1.5029,1.5046,1.5066,1.5087,1.5101,1.5122,1.5151,1.5156,1.5163,1.5164,1.5165,1.5167,1.5182,1.5184,1.5157,1.5157,1.5157,0,0,1.4872,1.4893,1.4907,1.4943,1.4961,1.4983,1.4983,1.5007,1.5023,1.5032,1.5059,1.5073,1.5096,1.5124,1.5137,1.5135,1.5176,1.5167,1.5167,1.5169,1.5183,1.5186,1.5188,1.5158,1.5157,1.5157,0,0,1.4891,1.4911,1.4934,1.4951,1.4978,1.4991,1.4997,1.5024,1.5034,1.5062,1.5069,1.5088,1.5125,1.5141,1.5153,1.5178,1.5181,1.5184,1.5191,1.5205,1.5208,1.521,1.5217,1.522,1.5187,1.5187,1.5187,0,1.4893,1.4929,1.4945,1.4968,1.4983,1.4994,1.5016,1.5032,1.5063,1.5073,1.5071,1.5117,1.5133,1.5164,1.517,1.5181,1.5186,1.5181,1.5206,1.5208,1.521,1.5218,1.522,1.5187,1.5187,1.5187,1.5187,0,1.4929,1.4953,1.4968,1.5,1.5016,1.5039,1.5057,1.5072,1.508,1.5093,1.512,1.514,1.5165,1.5173,1.518,1.5205,1.5203,1.5203,1.5199,1.5213,1.522,1.5223,1.5187,1.5187,1.5187,1.5187,0,0,1.4945,1.4985,1.499,1.5004,1.5033,1.5051,1.5074,1.5099,1.5111,1.5132,1.515,1.5181,1.5181,1.5196,1.5205,1.5217,1.5234,1.5216,1.5217,1.5217,1.526,1.5259,1.5262,1.5237,1.5237,1.5238,1.5258,0,1.4967,1.501,1.5024,1.5058,1.508,1.5089,1.5109,1.5128,1.514,1.5159,1.5173,1.5194,1.5193,1.5202,1.5215,1.5229,1.5242,1.5228,1.5252,1.5253,1.5245,1.5266,1.5265,1.5284,1.5261,1.5261,1.5262,0,1.4999,1.5022,1.5058,1.5084,1.5093,1.5111,1.5134,1.5153,1.5174,1.5182,1.5198,1.5206,1.5228,1.5223,1.5252,1.5242,1.5253,1.5261,1.5262,1.5264,1.5257,1.5267,1.529,1.5292,1.5266,1.5266,1.5266,0,1.5006,1.5045,1.5071,1.5083,1.5114,1.5125,1.5139,1.516,1.5174,1.5194,1.5203,1.5225,1.5237,1.5253,1.5266,1.5261,1.5294,1.529,1.53,1.53,1.5306,1.5305,1.5329,1.5315,1.5315,1.5314,1.5314,0,1.5028,1.505,1.5074,1.509,1.5114,1.513,1.5153,1.5166,1.5185,1.5202,1.5212,1.5228,1.5245,1.5263,1.5273,1.5295,1.5301,1.5307,1.5309,1.5305,1.5304,1.5312,1.5311,1.5315,1.5315,1.5315,1.5315,0,1.5039,1.5057,1.5086,1.5113,1.512,1.5137,1.5159,1.5174,1.5187,1.5209,1.5215,1.5235,1.5257,1.5272,1.5299,1.5306,1.5329,1.5332,1.5322,1.5323,1.5332,1.5331,1.5361,1.5365,1.5348,1.5349,1.5349,0,1.5052,1.5069,1.5098,1.5111,1.5124,1.5145,1.516,1.5176,1.519,1.5215,1.5227,1.5249,1.5268,1.5301,1.5317,1.5338,1.534,1.5349,1.5343,1.5339,1.5339,1.5337,1.5338,1.535,1.535,1.535,1.535,0,1.5072,1.508,1.5101,1.5125,1.5142,1.5161,1.518,1.519,1.5209,1.5224,1.5247,1.5261,1.5289,1.5311,1.5333,1.5345,1.535,1.5352,1.5355,1.5351,1.5345,1.5347,1.5324,1.5351,1.5351,1.5351,1.5351,1.5351,1.5083,1.5098,1.5121,1.5144,1.516,1.5177,1.5193,1.5208,1.5227,1.5252,1.526,1.5283,1.5303,1.5333,1.5345,1.5363,1.5362,1.5367,1.5368,1.5369,1.5368,1.5343,1.5367,1.5367,1.5367,1.5367,1.5367,0,1.5103,1.5118,1.5139,1.5166,1.5183,1.5188,1.5209,1.5223,1.5244,1.5262,1.528,1.5305,1.5326,1.5344,1.5365,1.5375,1.5378,1.538,1.5379,1.5381,1.5368,1.5363,1.5377,1.5377,1.5377,1.5377,1.5377,1.5377,1.5115,1.514,1.515,1.5183,1.5198,1.5221,1.5233,1.5248,1.5263,1.5291,1.5309,1.5321,1.5338,1.5361,1.5379,1.5384,1.5391,1.5392,1.5397,1.5384,1.5382,1.5381,1.5376,1.5394,1.5394,1.5409,1.5409,1.5409]},{"header":{"parameterUnit":"m.s-1","parameterCategory":1,"la1":30.2991,"la2":30.254,"lo1":-89.0895,"lo2":-89.0444,"dy":0.0017,"dx":0.0017,"nx":28,"ny":28,"refTime":"2023-08-16T09:00:00:Z","depth":0,"parameterNumber":3,"parameterNumberName":"V-component_of_WINDS"},"data":[0,0,0,0,0,0,0,0,0,0,0,0,0,0,0,0,0,0,0,0,0,0,0,0,0,0,0,0,0,0,0,0,0,0,0,0,0,0,0,0,0,0,0,0,0,0,0,0,0,0,0,0,0,0,0,0,0,0,1.1769,1.1768,0,1.1728,1.1728,1.1728,1.1675,1.1674,1.1673,1.1673,1.1631,1.1631,1.1631,0,0,0,0,0,0,0,0,0,0,0,0,0,1.1799,1.1799,1.1769,1.1768,1.1768,1.1729,1.1728,1.1727,1.1675,1.1674,1.1673,1.1672,1.1632,1.1631,1.1631,0,0,0,0,0,0,0,0,0,0,0,0,0,1.1775,1.1799,1.1769,1.1737,1.1734,1.1729,1.1728,1.1727,1.1676,1.1674,1.1673,1.1672,1.1632,1.1631,1.1631,1.1654,0,0,1.1629,1.1629,0,0,0,0,0,0,0,0,1.1777,1.1774,1.1742,1.1739,1.1736,1.1705,1.1723,1.1703,1.1676,1.1698,1.1673,1.1671,1.1657,1.1655,1.165,1.1652,1.165,1.1629,1.1629,1.1629,1.1629,0,0,0,0,0,0,0,1.1778,1.1775,1.1753,1.1742,1.1738,1.1724,1.1719,1.1719,1.1685,1.1696,1.1692,1.1688,1.1655,1.165,1.1648,1.1649,1.1629,1.1629,1.1629,1.1629,1.1665,1.1667,0,0,0,0,0,0,1.1785,1.1777,1.1754,1.1752,1.1753,1.1725,1.1719,1.1716,1.1685,1.1679,1.1689,1.1685,1.1652,1.1649,1.1647,1.167,1.1629,1.1629,1.1628,1.1664,1.1666,1.1667,0,0,0,0,0,0,1.1786,1.1783,1.1756,1.1763,1.1759,1.1726,1.1723,1.1716,1.1712,1.168,1.1673,1.169,1.1651,1.1647,1.1652,1.1668,1.1628,1.1628,1.1663,1.1665,1.1666,1.1718,0,0,0,0,0,0,1.1787,1.1784,1.1793,1.1764,1.1759,1.1762,1.1724,1.1716,1.1711,1.1706,1.168,1.1674,1.1649,1.1653,1.1651,1.1666,1.1628,1.1661,1.1663,1.1666,1.1714,1.1721,1.1727,0,0,0,0,0,1.1788,1.1809,1.1794,1.1791,1.1769,1.1763,1.176,1.1731,1.1713,1.1721,1.17,1.1675,1.1666,1.1654,1.1652,1.1667,1.166,1.1663,1.1666,1.1712,1.172,1.1727,0,0,0,0,0,0,1.1842,1.1805,1.1787,1.18,1.1785,1.1754,1.1764,1.1741,1.1732,1.1727,1.1692,1.1687,1.1695,1.1681,1.1668,1.1686,1.1659,1.1662,1.1695,1.1702,1.1708,1.1711,1.1627,0,0,0,0,0,1.1855,1.1853,1.1821,1.1836,1.1829,1.1798,1.1794,1.1773,1.1756,1.175,1.173,1.1714,1.1707,1.1704,1.1697,1.1712,1.1704,1.1721,1.1727,1.1733,1.1735,1.174,1.1747,1.1676,1.1676,1.1676,0,0,1.1882,1.1862,1.1864,1.1846,1.1832,1.183,1.1793,1.1794,1.1792,1.175,1.1753,1.1737,1.1717,1.1726,1.173,1.1715,1.1753,1.1736,1.1741,1.174,1.1744,1.175,1.1756,1.1678,1.1678,1.1677,0,0,1.1932,1.1917,1.1926,1.1912,1.1891,1.187,1.1872,1.1845,1.1832,1.1834,1.1802,1.1799,1.1789,1.1776,1.1768,1.1809,1.1785,1.1808,1.184,1.1846,1.1851,1.1856,1.1869,1.1875,1.1811,1.1811,1.1811,0,1.1969,1.1965,1.1934,1.1936,1.1928,1.1889,1.1898,1.1886,1.1864,1.1859,1.1843,1.1829,1.1813,1.1817,1.1827,1.1822,1.1823,1.1811,1.1853,1.1857,1.1861,1.1874,1.1879,1.1813,1.1813,1.1813,1.1813,0,1.2011,1.2009,1.2019,1.1998,1.1991,1.1997,1.1965,1.1962,1.1941,1.1921,1.1923,1.1902,1.1888,1.1888,1.1868,1.1889,1.1881,1.186,1.1832,1.1871,1.1882,1.1887,1.1817,1.1816,1.1816,1.1815,0,0,1.2094,1.2054,1.2058,1.2047,1.202,1.2018,1.202,1.2007,1.2004,1.199,1.199,1.1982,1.1961,1.1952,1.193,1.1934,1.1967,1.1912,1.1911,1.1922,1.1987,1.2003,1.2009,1.195,1.1951,1.1952,1.1988,0,1.2138,1.2141,1.2111,1.2122,1.2119,1.2081,1.2083,1.2066,1.2047,1.2041,1.202,1.2014,1.1988,1.1982,1.1985,1.1962,1.1979,1.1959,1.195,1.195,1.1956,1.2015,1.2033,1.2068,1.1993,1.1993,1.1994,0,1.219,1.2177,1.2187,1.2158,1.2155,1.2158,1.2142,1.2137,1.2116,1.2102,1.2091,1.2065,1.2064,1.2037,1.2035,1.2022,1.2016,1.2005,1.2005,1.2003,1.1974,1.2014,1.2079,1.2084,1.2001,1.2,1.2,0,1.2248,1.2234,1.2237,1.2229,1.2195,1.2197,1.2183,1.2161,1.2154,1.214,1.2135,1.2121,1.2114,1.2103,1.2073,1.2057,1.2074,1.2045,1.2061,1.2062,1.2067,1.2067,1.2131,1.2064,1.2064,1.2064,1.2063,0,1.23,1.2307,1.2263,1.2265,1.2272,1.2237,1.2244,1.2226,1.2207,1.2204,1.217,1.2168,1.2129,1.2122,1.2099,1.21,1.2097,1.2085,1.2078,1.2087,1.2089,1.2083,1.208,1.2065,1.2065,1.2064,1.2064,0,1.2367,1.2337,1.2339,1.2306,1.2297,1.2304,1.2275,1.2275,1.2253,1.225,1.2247,1.2213,1.2203,1.2172,1.2154,1.2138,1.2146,1.2134,1.2153,1.2149,1.2166,1.2165,1.2229,1.2235,1.2164,1.2165,1.2166,0,1.2402,1.2406,1.2373,1.2369,1.2356,1.235,1.2342,1.2307,1.2301,1.2276,1.2279,1.2266,1.2254,1.224,1.2213,1.2198,1.2186,1.2209,1.2183,1.2192,1.2185,1.2185,1.2184,1.2215,1.2216,1.2216,1.2217,0,1.2466,1.2451,1.2441,1.2426,1.2418,1.2404,1.2388,1.2387,1.2348,1.2342,1.2331,1.2321,1.2303,1.229,1.2271,1.2255,1.2229,1.2225,1.2228,1.2237,1.2247,1.2241,1.2168,1.2224,1.2223,1.2223,1.2222,1.2222,1.2517,1.2519,1.2496,1.2485,1.247,1.2455,1.2453,1.243,1.2421,1.2403,1.2383,1.2374,1.2351,1.2323,1.2309,1.23,1.2287,1.2291,1.2292,1.2293,1.2297,1.2249,1.2297,1.2297,1.2296,1.2296,1.2296,0,1.2579,1.2562,1.2553,1.2531,1.2523,1.2499,1.248,1.2474,1.2467,1.2447,1.2436,1.2422,1.2409,1.238,1.2364,1.2363,1.2351,1.236,1.2359,1.2356,1.2311,1.231,1.237,1.237,1.237,1.237,1.237,1.237,1.2611,1.2611,1.2593,1.2585,1.2567,1.2558,1.2549,1.2535,1.2519,1.2506,1.2495,1.2476,1.2452,1.2434,1.242,1.2412,1.2407,1.242,1.2408,1.2366,1.2359,1.2353,1.2351,1.2419,1.2419,1.2453,1.2454,1.2454]}]]